Location: Newark
(50.2306°N, 14.0814°E)
Time: 08:16:56
(UTC+00:00)

N. Korean satellite - Pass Details

Date: 13 December 2019
Orbit: 454 x 507 km, 97.2° (Epoch: 27 January)

Event Time Altitude Azimuth Distance (km) Brightness Sun altitude
Rises 03:43:01 0° 33° (NNE) 2,542 10.6 -29.3°
Reaches altitude 10° 03:46:47 10° 75° (ENE) 1,638 10.1 -28.7°
Maximum altitude 03:47:31 11° 87° (E) 1,603 10.1 -28.6°
Drops below altitude 10° 03:48:15 10° 99° (E) 1,630 10.2 -28.5°
Sets 03:51:56 0° 141° (SE) 2,483 10.7 -27.9°
